DW0487 Weather Reports


time (UTC)temp
C
wind
direction
speed
KPH
gust
KPH
rain 1hr
cm
rain 24hr
cm
rain mn
cm
humidity
%
barometer
mb
20260506001508 7 230 0.0 1.6 0.00 0.00 0.00 82 1007.9
20260506000006 7 230 0.0 3.2 0.00 0.00 0.00 81 1008.0
20260505234503 8 174 1.6 4.8 0.00 0.00 0.00 81 1008.1
20260505233105 8 238 0.0 1.6 0.00 0.00 0.00 80 1008.1
20260505231612 8 238 0.0 3.2 0.00 0.00 0.00 79 1008.1
20260505230055 9 238 1.6 6.4 0.00 0.00 0.00 78 1008.0
20260505224555 10 288 0.0 4.8 0.00 0.00 0.00 76 1008.0
20260505223050 10 281 3.2 6.4 0.00 0.00 0.00 75 1008.1
20260505221547 11 26 3.2 9.7 0.00 0.00 0.00 75 1008.1
20260505220048 11 21 4.8 12.9 0.00 0.00 0.00 74 1008.0
20260505214554 11 54 11.3 17.7 0.00 0.00 0.00 73 1008.1
20260505213044 11 23 4.8 16.1 0.00 0.00 0.00 72 1008.1
20260505211542 12 49 9.7 20.9 0.00 0.00 0.00 71 1008.0
20260505210044 12 24 6.4 17.7 0.00 0.00 0.00 71 1008.0
20260505204541 12 47 8.0 19.3 0.00 0.00 0.00 73 1007.8
20260505203101 11 66 11.3 19.3 0.00 0.00 0.00 76 1007.5
20260505201545 11 60 4.8 12.9 0.00 0.00 0.00 76 1007.4
20260505200048 12 36 3.2 6.4 0.00 0.00 0.00 75 1007.1
20260505194540 12 12 1.6 6.4 0.00 0.00 0.00 74 1006.5
20260505193039 12 26 8.0 14.5 0.00 0.00 0.00 73 1006.1
20260505191540 13 24 8.0 14.5 0.00 0.00 0.00 72 1005.8
20260505190138 13 42 6.4 20.9 0.00 0.00 0.00 71 1005.5
20260505184549 14 36 6.4 14.5 0.00 0.00 0.00 69 1005.5
20260505183049 15 44 8.0 14.5 0.00 0.00 0.00 64 1005.5
20260505181549 16 28 3.2 8.0 0.00 0.00 0.00 55 1005.0
20260505180029 16 84 3.2 9.7 0.00 0.00 0.00 46 1004.8
20260505174538 17 17 1.6 6.4 0.00 0.00 0.00 45 1004.6
20260505173029 17 248 3.2 11.3 0.00 0.00 0.00 44 1004.5
20260505171527 17 114 1.6 9.7 0.00 0.00 0.00 46 1004.4
20260505170001 17 209 6.4 17.7 0.00 0.00 0.00 45 1004.3
20260505164501 17 194 8.0 19.3 0.00 0.00 0.00 45 1004.1
20260505163051 18 130 9.7 20.9 0.00 0.00 0.00 43 1004.2
20260505161601 18 240 11.3 24.1 0.00 0.00 0.00 44 1004.1
20260505153059 20 162 9.7 19.3 0.00 0.00 0.00 40 1004.3
20260505151558 20 192 6.4 17.7 0.00 0.00 0.00 40 1004.4
20260505124541 18 182 6.4 20.9 0.00 0.00 0.00 42 1004.9
20260505123040 18 248 11.3 25.7 0.00 0.00 0.00 40 1004.8
20260505121543 18 221 11.3 25.7 0.00 0.00 0.00 41 1004.7
20260505120043 18 255 9.7 19.3 0.00 0.00 0.00 42 1004.6
20260505114540 18 201 9.7 19.3 0.00 0.00 0.00 42 1004.7
20260505113041 18 227 9.7 24.1 0.00 0.00 0.00 42 1004.7
20260505111541 19 241 16.1 32.2 0.00 0.00 0.00 38 1004.7
20260505101539 20 235 1.6 12.9 0.00 0.00 0.00 35 1004.8
20260505100035 21 204 8.0 20.9 0.00 0.00 0.00 33 1004.8
20260505094536 21 204 8.0 17.7 0.00 0.00 0.00 33 1005.0
20260505093039 20 185 3.2 9.7 0.00 0.00 0.00 34 1005.1
20260505091529 20 252 6.4 11.3 0.00 0.00 0.00 36 1005.1
20260505090023 19 325 0.0 9.7 0.00 0.00 0.00 37 1005.2
20260505084520 18 250 4.8 12.9 0.00 0.00 0.00 40 1005.6
20260505083016 18 163 8.0 20.9 0.00 0.00 0.00 41 1005.9
20260505081516 17 205 11.3 25.7 0.00 0.00 0.00 39 1006.1
20260505080010 17 217 9.7 14.5 0.00 0.00 0.00 43 1006.4
20260505074509 17 194 6.4 22.5 0.00 0.00 0.00 44 1006.5
20260505073008 17 138 11.3 20.9 0.00 0.00 0.00 44 1006.6
20260505071503 16 176 8.0 24.1 0.00 0.00 0.00 49 1006.8
20260505070100 12 157 9.7 16.1 0.00 0.00 0.00 60 1007.1
20260505064559 10 51 3.2 6.4 0.00 0.00 0.00 80 1007.1
20260505063054 8 45 0.0 3.2 0.00 0.00 0.00 83 1007.5
20260505061554 8 57 0.0 0.0 0.00 0.00 0.00 86 1007.7
20260505060052 7 12 0.0 6.4 0.00 0.00 0.00 87 1007.6
20260505054552 6 70 0.0 4.8 0.00 0.00 0.00 89 1007.6
20260505053057 6 13 1.6 4.8 0.00 0.00 0.00 90 1007.5
20260505051545 5 97 0.0 4.8 0.00 0.00 0.00 89 1007.7
20260505041533 4 209 0.0 6.4 0.00 0.00 0.00 86 1008.0
20260505040031 4 61 0.0 0.0 0.00 0.00 0.00 86 1008.0
20260505034530 5 188 0.0 0.0 0.00 0.00 0.00 86 1007.9
20260505033039 5 192 0.0 0.0 0.00 0.00 0.00 85 1008.1
20260505031526 5 119 0.0 4.8 0.00 0.00 0.00 85 1008.1
20260505030027 5 277 0.0 4.8 0.00 0.00 0.00 84 1008.4
20260505024522 5 80 3.2 6.4 0.00 0.00 0.00 84 1008.4
20260505023021 5 184 0.0 4.8 0.00 0.00 0.00 83 1008.6
20260505021517 6 307 0.0 3.2 0.00 0.00 0.00 83 1008.6
20260505020016 6 243 0.0 3.2 0.00 0.00 0.00 82 1008.6
20260505014516 6 17 0.0 0.0 0.00 0.00 0.00 81 1008.8
20260505013011 6 100 1.6 4.8 0.00 0.00 0.00 81 1008.8
20260505011508 7 232 3.2 8.0 0.00 0.00 0.00 79 1008.9
20260505010005 7 248 0.0 3.2 0.00 0.00 0.00 77 1009.1
20260505004507 8 293 0.0 4.8 0.00 0.00 0.00 76 1009.2
20260505003103 8 99 0.0 1.6 0.00 0.00 0.00 75 1009.3